Pellston, MI

1:26 AM EDT on April 25, 2017 (GMT -0400)
Pellston Regional Airport Of Emmet County

Weather History for KPLN - January, 2013

Change the Weather History Date:

Tuesday, January 1, 2013

  Actual Average Record
Temperature  
Mean Temperature 20 °F -  
Max Temperature 23 °F 27 °F 46 °F (2007)
Min Temperature 16 °F 13 °F -25 °F (1999)
Degree Days  
Heating Degree Days 46    
Moisture  
Dew Point 12 °F    
Average Humidity 72    
Maximum Humidity 88    
Minimum Humidity 60    
Precipitation  
Precipitation 0.00 in - - ()
Sea Level Pressure  
Sea Level Pressure 30.04 in    
Wind  
Wind Speed 7 mph (WNW)    
Max Wind Speed 15 mph    
Max Gust Speed 20 mph    
Visibility 8 miles    
Events Snow    
Averages and records for this station are not official NWS values.
T = Trace of Precipitation, MM = Missing Value Source: NWS Daily Summary

Daily Weather History Graph

Daily Weather History Graph

Search for Another Location

Airport or City:

Trip Planner

Search our weather history database for the weather conditions in past years. The results will help you decide how hot, cold, wet, or windy it might be!

Date:

Astronomy

Jan. 01, 2013 Rise Set
Actual Time 8:19 AM EST 5:06 PM EST
Civil Twilight 7:45 AM EST 5:40 PM EST
Nautical Twilight 7:08 AM EST 6:18 PM EST
Astronomical Twilight 6:32 AM EST 6:54 PM EST
Moon 9:51 PM EST (1/1) 10:18 AM EST (1/1)
Length of Visible Light 9h 55m
Length of Day
8h 46m
Waning Gibbous, 83% of the Moon is Illuminated
Jan 1
Waning Gibbous
Jan 4
Last Quarter
Jan 11
New
Jan 18
First Quarter
Jan 26
Full

Hourly Weather History & Observations

Time (EST) Temp. Windchill Dew Point Humidity Pressure Visibility Wind Dir Wind Speed Gust Speed Precip Events Conditions
12:54 AM 19.9 °F 7.3 °F 10.0 °F 65% 30.05 in 9.0 mi NW 12.7 mph - 0.00 in Snow Light Snow
1:54 AM 19.9 °F 9.3 °F 10.0 °F 65% 30.05 in 10.0 mi NNW 9.2 mph - 0.00 in   Overcast
2:43 AM 19.4 °F 11.5 °F 12.2 °F 74% 30.04 in 2.0 mi North 5.8 mph - 0.00 in Snow Light Snow
2:46 AM 19.4 °F 11.5 °F 12.2 °F 74% 30.04 in 1.8 mi North 5.8 mph - 0.00 in Snow Light Snow
3:06 AM 17.6 °F 12.3 °F 12.2 °F 79% 30.05 in 3.0 mi North 3.5 mph - 0.00 in Snow Light Snow
3:54 AM 17.1 °F - 12.9 °F 84% 30.09 in 9.0 mi Calm Calm - 0.00 in Snow Light Snow
4:54 AM 17.1 °F 11.7 °F 12.0 °F 81% 30.10 in 5.0 mi West 3.5 mph - 0.00 in Snow Light Snow
6:54 AM 16.0 °F - 12.9 °F 88% 30.12 in 9.0 mi Calm Calm - 0.00 in Snow Light Snow
7:54 AM 16.0 °F - 12.0 °F 84% 30.13 in 8.0 mi Calm Calm - 0.00 in Snow Light Snow
9:54 AM 17.1 °F 11.7 °F 12.9 °F 84% 30.13 in 9.0 mi South 3.5 mph - 0.00 in   Overcast
10:54 AM 19.0 °F - 12.9 °F 77% 30.14 in 10.0 mi Calm Calm - 0.00 in   Overcast
11:54 AM 21.0 °F 9.9 °F 10.0 °F 63% 30.12 in 10.0 mi West 10.4 mph - N/A   Overcast
12:54 PM 21.0 °F 13.4 °F 10.9 °F 65% 30.08 in 7.0 mi West 5.8 mph - 0.00 in Snow Light Snow
1:54 PM 21.9 °F 11.7 °F 12.0 °F 66% 30.05 in 10.0 mi WNW 9.2 mph - 0.00 in   Overcast
2:27 PM 21.2 °F 10.9 °F 12.2 °F 68% 30.00 in 10.0 mi West 9.2 mph - N/A   Overcast
2:54 PM 21.9 °F 12.5 °F 12.0 °F 66% 30.04 in 8.0 mi West 8.1 mph - 0.00 in Snow Light Snow
3:19 PM 21.2 °F 11.7 °F 14.0 °F 74% 29.99 in 1.8 mi West 8.1 mph - 0.00 in Snow Light Snow
4:02 PM 21.2 °F 11.7 °F 15.8 °F 80% 29.99 in 1.5 mi West 8.1 mph - 0.00 in Snow Light Snow
4:09 PM 21.2 °F 13.6 °F 15.8 °F 80% 29.99 in 3.0 mi West 5.8 mph - 0.00 in Snow Light Snow
4:54 PM 21.9 °F 14.5 °F 15.1 °F 75% 30.03 in 7.0 mi WSW 5.8 mph - 0.00 in Snow Light Snow
5:54 PM 21.9 °F 8.7 °F 14.0 °F 72% 30.03 in 10.0 mi West 15.0 mph 19.6 mph 0.00 in   Overcast
6:54 PM 23.0 °F 13.1 °F 12.9 °F 65% 30.02 in 10.0 mi West 9.2 mph - N/A   Overcast
7:12 PM 23.0 °F 13.1 °F 12.2 °F 63% 29.98 in 10.0 mi West 9.2 mph - N/A   Overcast
7:54 PM 23.0 °F 13.9 °F 12.9 °F 65% 30.01 in 10.0 mi West 8.1 mph - N/A   Overcast
8:54 PM 23.0 °F 13.9 °F 14.0 °F 68% 30.01 in 10.0 mi West 8.1 mph - N/A   Overcast
9:54 PM 21.9 °F 12.5 °F 12.9 °F 68% 30.00 in 10.0 mi WNW 8.1 mph - N/A   Overcast
10:22 PM 21.2 °F 10.9 °F 10.4 °F 63% 29.97 in 10.0 mi WNW 9.2 mph - N/A   Overcast
10:54 PM 21.9 °F 12.5 °F 10.0 °F 60% 30.01 in 10.0 mi WNW 8.1 mph - N/A   Overcast
11:54 PM 19.9 °F 11.1 °F 8.1 °F 60% 30.00 in 10.0 mi WNW 6.9 mph - N/A   Overcast